Regional Weather Roundup
Issued by NWS Cleveland, OH

Home | Current Version | Previous Version | Graphics & Text | Print | Product List | Glossary On
Versions: 1 2 3 4 5 6 7 8 9 10 11 12 13 14 15 16 17 18 19 20 21 22 23 24 25 26 27 28 29 30 31 32 33 34 35 36 37 38 39 40 41 42 43 44 45 46 47 48 49 50
000
ASUS41 KCLE 282000
RWRCLE
OHIO REGIONAL WEATHER ROUNDUP
NATIONAL WEATHER SERVICE WILMINGTON, OH
400 PM EDT WED SEP 28 2016

NOTE: "FAIR" INDICATES FEW OR NO CLOUDS BELOW 12,000 FEET WITH NO
SIGNIFICANT WEATHER AND/OR OBSTRUCTIONS TO VISIBILITY.

OHZ001>008-015>018-024>027-034-035-043-044-282100-
   NORTHWEST OHIO

CITY           SKY/WX    TMP DP  RH WIND       PRES   REMARKS
DEFIANCE       FAIR      64  50  60 E8        29.87R
FINDLAY        LGT RAIN  62  54  74 SE8       29.86R
TOLEDO EXPRESS PTSUNNY   62  55  77 E10       29.88R
TOLEDO EXEC    CLOUDY    62  55  77 E10       29.91R
LIMA           PTSUNNY   61  55  81 S13       29.87R
$$

OHZ009>014-019>023-028>033-038-089-282100-
   NORTHEAST OHIO

CITY           SKY/WX    TMP DP  RH WIND       PRES   REMARKS
CLE-HOPKINS    CLOUDY    64  52  64 S5        29.95R
CLE-LAKEFRONT  PTSUNNY   65  53  65 CALM      29.92S
CUY CO. ARPT   CLOUDY    68  55  64 N7        29.93R
LORAIN-ELYRIA  CLOUDY    61  52  72 SE7       29.93R
ASHTABULA      FAIR      71  54  54 SE12      29.95S
AKRON-CANTON   CLOUDY    63  51  65 NW9       29.92R
WOOSTER        NOT AVBL
MANSFIELD      CLOUDY    58  55  90 SE7       29.91R
YOUNGSTOWN     CLOUDY    71  53  52 SE8       29.92F
$$

OHZ042-051>053-060>062-070>072-077>081-282100-
  SOUTHWEST OHIO

CITY           SKY/WX    TMP DP  RH WIND       PRES   REMARKS
CINC-COVINGTON LGT RAIN  58  57  97 SE16      29.82F
CINC-LUNKEN    LGT RAIN  58  58 100 CALM      29.88S
HAMILTON       LGT RAIN  58  56  93 E9G17     29.84F FOG
DAYTON         NOT AVBL
WRIGHT-PAT AFB LGT RAIN  57  57 100 E12       29.85F
DAYTON GENERAL LGT RAIN  57  54  89 E10       29.85F
WILMINGTON     RAIN      57  56  96 S10       29.87R FOG
$$

OHZ036-037-039>041-045>050-054>059-063>069-073>076-082>088-282100-
  CENTRAL AND SOUTHEAST OHIO

CITY           SKY/WX    TMP DP  RH WIND       PRES   REMARKS
COLUMBUS       RAIN      57  57 100 E6        29.90R FOG
OSU AIRPORT    LGT RAIN  56  56 100 E3        29.90R FOG
BOLTON FIELD   LGT RAIN  57  57 100 CALM      29.90R
RICKENBACK AFB NOT AVBL
NEWARK         LGT RAIN  60  55  83 CALM      29.91R
MARION         LGT RAIN  59  53  80 S9        29.90R
LANCASTER      LGT RAIN  59  57  93 SE3       29.90R FOG
ZANESVILLE     CLOUDY    60  53  77 N6        29.89S
NEW PHILLY     PTSUNNY   67  50  54 NW6       29.92R
$$




USA.gov is the U.S. government's official web portal to all federal, state and local government web resources and services.